Location: Bohy
(49.9380°N, 13.5753°E)
Time: 05:55:31
(UTC+00:00)

Cosmos 1315 Rocket - Pass Details

Date: 19 May 2025
Orbit: 498 x 525 km, 81.2° (Epoch: 14 June)

Event Time Altitude Azimuth Distance (km) Brightness Sun altitude
Exits shadow 20:55:11 22° 182° (S) 1,184 4.0 -14.7°
Maximum altitude 20:57:35 75° 101° (E) 551 2.6 -14.9°
Drops below altitude 10° 21:01:29 10° 15° (NNE) 1,774 6.1 -15.2°
Sets 21:03:38 0° 14° (NNE) 2,665 7.1 -15.3°
